• en Belgique
  • Liste des pays
  • À 7 jours
  • Température de l'eau
  • Carte satellitaire
  • Carte météo
  • Widgets météo
  • user-avatar
    Se connecter

    Météo par heure à Sydney

    Ce jour, 26 Juin, Lundi

    Heure Température Précipitation Vent Pression Humidité
    00:00 +7°C° 0 mm 4 m/s 763 mmHg 84%
    01:00 +7°C° 0 mm 4 m/s 763 mmHg 86%
    02:00 +7°C° 0 mm 4 m/s 763 mmHg 88%
    03:00 +6°C° 0 mm 4 m/s 763 mmHg 90%
    04:00 +6°C° 0 mm 4 m/s 763 mmHg 92%
    05:00 +6°C° 0 mm 4 m/s 764 mmHg 92%
    06:00 +6°C° 0 mm 4 m/s 764 mmHg 93%
    07:00 +5°C° 0 mm 4 m/s 765 mmHg 93%
    08:00 +9°C° 0 mm 3 m/s 765 mmHg 83%
    09:00 +11°C° 0 mm 3 m/s 765 mmHg 72%
    10:00 +13°C° 0 mm 3 m/s 766 mmHg 61%
    11:00 +14°C° 0 mm 3 m/s 765 mmHg 55%
    12:00 +17°C° 0 mm 3 m/s 765 mmHg 48%
    13:00 +18°C° 0 mm 2 m/s 765 mmHg 42%
    14:00 +17°C° 0 mm 2 m/s 765 mmHg 47%
    15:00 +16°C° 0 mm 2 m/s 765 mmHg 53%
    16:00 +15°C° 0 mm 2 m/s 765 mmHg 58%
    17:00 +13°C° 0 mm 2 m/s 766 mmHg 68%
    18:00 +10°C° 0 mm 2 m/s 766 mmHg 78%
    19:00 +8°C° 0 mm 2 m/s 767 mmHg 88%
    20:00 +7°C° 0 mm 2 m/s 767 mmHg 89%
    21:00 +7°C° 0 mm 2 m/s 768 mmHg 90%
    22:00 +7°C° 0 mm 2 m/s 768 mmHg 91%
    23:00 +7°C° 0 mm 2 m/s 768 mmHg 89%

    Demain, 27 Juin, Mardi

    Heure Température Précipitation Vent Pression Humidité
    00:00 +7°C° 0 mm 2 m/s 768 mmHg 87%
    01:00 +8°C° 0 mm 2 m/s 768 mmHg 86%
    02:00 +7°C° 0 mm 2 m/s 768 mmHg 87%
    03:00 +7°C° 0 mm 2 m/s 768 mmHg 89%
    04:00 +7°C° 0 mm 2 m/s 768 mmHg 90%
    05:00 +6°C° 0 mm 2 m/s 768 mmHg 91%
    06:00 +6°C° 0 mm 2 m/s 768 mmHg 93%
    07:00 +6°C° 0 mm 2 m/s 769 mmHg 94%
    08:00 +8°C° 0 mm 2 m/s 769 mmHg 84%
    09:00 +12°C° 0 mm 2 m/s 769 mmHg 74%
    10:00 +14°C° 0 mm 2 m/s 769 mmHg 64%
    11:00 +15°C° 0 mm 2 m/s 769 mmHg 62%
    12:00 +16°C° 0 mm 2 m/s 768 mmHg 61%
    13:00 +17°C° 0 mm 2 m/s 767 mmHg 60%
    14:00 +16°C° 0 mm 1 m/s 767 mmHg 65%
    15:00 +16°C° 0 mm 1 m/s 767 mmHg 69%
    16:00 +15°C° 0 mm 1 m/s 767 mmHg 74%
    17:00 +14°C° 0 mm 1 m/s 767 mmHg 79%
    18:00 +13°C° 0 mm 1 m/s 767 mmHg 83%
    19:00 +12°C° 0 mm 1 m/s 767 mmHg 88%
    20:00 +12°C° 0 mm 2 m/s 768 mmHg 90%
    21:00 +10°C° 0 mm 2 m/s 768 mmHg 93%
    22:00 +9°C° 0 mm 2 m/s 768 mmHg 96%
    23:00 +9°C° 0 mm 2 m/s 767 mmHg 96%

    Après-demain, 28 Juin, Mercredi

    Heure Température Précipitation Vent Pression Humidité
    00:00 +8°C° 0 mm 2 m/s 767 mmHg 97%
    01:00 +8°C° 0 mm 2 m/s 767 mmHg 97%
    02:00 +8°C° 0 mm 2 m/s 766 mmHg 97%
    03:00 +8°C° 0 mm 2 m/s 766 mmHg 97%
    04:00 +8°C° 0 mm 2 m/s 766 mmHg 97%
    05:00 +8°C° 0 mm 2 m/s 766 mmHg 97%
    06:00 +8°C° 0 mm 2 m/s 766 mmHg 96%
    07:00 +8°C° 0 mm 2 m/s 766 mmHg 96%
    08:00 +10°C° 0,1 mm 2 m/s 766 mmHg 88%
    09:00 +13°C° 0,1 mm 2 m/s 766 mmHg 80%
    10:00 +15°C° 0,1 mm 2 m/s 766 mmHg 72%
    11:00 +14°C° 0,4 mm 3 m/s 765 mmHg 78%
    12:00 +13°C° 0,4 mm 3 m/s 765 mmHg 84%
    13:00 +13°C° 0,4 mm 3 m/s 764 mmHg 90%
    14:00 +13°C° 0,7 mm 3 m/s 764 mmHg 92%
    15:00 +13°C° 0,7 mm 2 m/s 764 mmHg 93%
    16:00 +13°C° 0,7 mm 2 m/s 764 mmHg 95%
    17:00 +13°C° 0,2 mm 2 m/s 764 mmHg 96%
    18:00 +12°C° 0,2 mm 2 m/s 764 mmHg 97%
    19:00 +10°C° 0,2 mm 2 m/s 764 mmHg 98%
    20:00 +10°C° 0 mm 3 m/s 765 mmHg 98%
    21:00 +9°C° 0 mm 3 m/s 765 mmHg 98%
    22:00 +8°C° 0 mm 3 m/s 765 mmHg 97%
    23:00 +8°C° 0 mm 3 m/s 764 mmHg 97%

    29 Juin, Jeudi

    Heure Température Précipitation Vent Pression Humidité
    00:00 +8°C° 0 mm 3 m/s 764 mmHg 97%
    01:00 +6°C° 0 mm 4 m/s 763 mmHg 96%
    02:00 +6°C° 0 mm 4 m/s 763 mmHg 95%
    03:00 +6°C° 0 mm 4 m/s 763 mmHg 95%
    04:00 +6°C° 0 mm 4 m/s 763 mmHg 94%
    05:00 +6°C° 0 mm 4 m/s 763 mmHg 94%
    06:00 +5°C° 0 mm 4 m/s 764 mmHg 95%
    07:00 +5°C° 0 mm 4 m/s 764 mmHg 95%
    08:00 +6°C° 0 mm 5 m/s 764 mmHg 89%
    09:00 +8°C° 0 mm 5 m/s 764 mmHg 84%
    10:00 +10°C° 0 mm 5 m/s 764 mmHg 78%
    11:00 +12°C° 0 mm 5 m/s 763 mmHg 69%
    12:00 +14°C° 0 mm 6 m/s 763 mmHg 59%
    13:00 +15°C° 0 mm 6 m/s 762 mmHg 50%
    14:00 +15°C° 0 mm 6 m/s 762 mmHg 52%
    15:00 +14°C° 0 mm 6 m/s 762 mmHg 55%
    16:00 +14°C° 0 mm 6 m/s 761 mmHg 57%
    17:00 +11°C° 0 mm 6 m/s 762 mmHg 63%
    18:00 +10°C° 0 mm 6 m/s 762 mmHg 68%
    19:00 +8°C° 0 mm 7 m/s 763 mmHg 73%
    20:00 +8°C° 0 mm 7 m/s 763 mmHg 73%
    21:00 +6°C° 0 mm 7 m/s 764 mmHg 74%
    22:00 +6°C° 0 mm 7 m/s 764 mmHg 74%
    23:00 +6°C° 0 mm 7 m/s 764 mmHg 72%

    30 Juin, Vendredi

    Heure Température Précipitation Vent Pression Humidité
    00:00 +6°C° 0 mm 7 m/s 764 mmHg 70%
    01:00 +8°C° 0 mm 6 m/s 764 mmHg 69%
    02:00 +6°C° 0 mm 7 m/s 764 mmHg 69%
    03:00 +5°C° 0 mm 7 m/s 765 mmHg 68%
    04:00 +5°C° 0 mm 7 m/s 765 mmHg 68%
    05:00 +4°C° 0 mm 7 m/s 766 mmHg 69%
    06:00 +3°C° 0 mm 7 m/s 766 mmHg 71%
    07:00 +3°C° 0 mm 6 m/s 767 mmHg 72%
    08:00 +4°C° 0 mm 6 m/s 767 mmHg 64%
    09:00 +6°C° 0 mm 7 m/s 768 mmHg 56%
    10:00 +9°C° 0 mm 7 m/s 768 mmHg 48%
    11:00 +10°C° 0 mm 6 m/s 768 mmHg 45%
    12:00 +11°C° 0 mm 6 m/s 767 mmHg 41%
    13:00 +13°C° 0 mm 6 m/s 767 mmHg 38%
    14:00 +12°C° 0 mm 5 m/s 767 mmHg 42%
    15:00 +12°C° 0 mm 5 m/s 767 mmHg 47%
    16:00 +12°C° 0 mm 4 m/s 768 mmHg 52%
    17:00 +10°C° 0 mm 4 m/s 768 mmHg 56%
    18:00 +7°C° 0 mm 4 m/s 769 mmHg 60%
    19:00 +5°C° 0 mm 4 m/s 770 mmHg 63%
    20:00 +5°C° 0 mm 4 m/s 770 mmHg 66%
    21:00 +4°C° 0 mm 4 m/s 770 mmHg 68%
    22:00 +4°C° 0 mm 4 m/s 771 mmHg 71%
    23:00 +4°C° 0 mm 4 m/s 771 mmHg 73%

    1 Juillet, Samedi

    Heure Température Précipitation Vent Pression Humidité
    00:00 +3°C° 0 mm 4 m/s 770 mmHg 75%
    01:00 +3°C° 0 mm 4 m/s 770 mmHg 77%
    02:00 +3°C° 0 mm 4 m/s 771 mmHg 78%
    03:00 +1°C° 0 mm 4 m/s 771 mmHg 78%
    04:00 +1°C° 0 mm 4 m/s 771 mmHg 79%
    05:00 +2°C° 0 mm 3 m/s 771 mmHg 79%
    06:00 +1°C° 0 mm 3 m/s 771 mmHg 79%
    07:00 +1°C° 0 mm 3 m/s 772 mmHg 79%
    08:00 +4°C° 0 mm 3 m/s 772 mmHg 69%
    09:00 +7°C° 0 mm 2 m/s 772 mmHg 58%
    10:00 +10°C° 0 mm 2 m/s 772 mmHg 47%
    11:00 +13°C° 0 mm 2 m/s 771 mmHg 44%
    12:00 +14°C° 0 mm 1 m/s 770 mmHg 40%
    13:00 +16°C° 0 mm 1 m/s 770 mmHg 36%
    14:00 +15°C° 0 mm 1 m/s 770 mmHg 41%
    15:00 +14°C° 0 mm 1 m/s 770 mmHg 47%
    16:00 +13°C° 0 mm 1 m/s 770 mmHg 53%
    17:00 +11°C° 0 mm 1 m/s 770 mmHg 57%
    18:00 +9°C° 0 mm 1 m/s 770 mmHg 62%
    19:00 +7°C° 0 mm 1 m/s 771 mmHg 66%
    20:00 +6°C° 0 mm 1 m/s 771 mmHg 68%
    21:00 +5°C° 0 mm 2 m/s 771 mmHg 70%
    22:00 +5°C° 0 mm 2 m/s 771 mmHg 72%
    23:00 +4°C° 0 mm 2 m/s 771 mmHg 74%
    Voir plus